THOR ABLESTAR DEB, 561

Orbit data source: Space-Track

THOR ABLESTAR DEB, 561 is space debris in LEO originally from a launch on Thu, 29 Jun 1961 UTC launched from the Air Force Eastern Test Range (AFETR). Debris objects in space refer to the collection of defunct objects orbiting the Earth. Examples of debris include non-operational satellites, rocket bodies, and fragments generated from explosions, collisions, or faulty payload assembly.

Loading next visibility...
Identifier
561, 1961-015GT
Orbit
LEO
Country
Flag of USUS
Related business
Manufacturer
Unknown
Mission
Spacecraft
Bus & Motor
Unknown
Mass
Unknown
Launch date (UTC)
1961-06-29 (64 years ago)
Launch vehicle
Unknown
Launch site
Air Force Eastern Test Range (AFETR)
Object type
Payload
Rocket body
Debris
Shape & HBR
Unknown shape, 0.1 m
Radar Cross Section
Medium (>0.1 m² and <1 m²)

Expand to show TLE details & history
Last TLE update: 6 hours ago

TLE from 6 hours ago
0 THOR ABLESTAR DEB
1 00561U 61015GT  25309.27771258  .00000073  00000-0  43996-3 0  9997
2 00561  67.7566  20.4488 0622468  91.2591 331.6591 12.41295437913337
Epoch: 2025-11-05T06:39Z
TLE epoch observation values (Epoch: 2025-11-05T06:39:54.366Z)
Latitude
52.84048°
Longitude
-91.81452°
Altitude
1,084.69 km
Speed
7.51 km/s
True Right ascension
03h 31m 39s
True Declination
52° 40' 55"
Sunlit
Object was in full shadow at epoch
Visualization orbit readout
Latitude
Unknown
Longitude
Unknown
Altitude
Unknown
Speed
Unknown
Apparent Right ascension
Unknown
Apparent Declination
Unknown
Sunlit
N/A
Visualization observer readout
Local Sidereal Time
08:27:41
Azimuth
Unknown
Elevation
Unknown
Doppler factor
Unknown
Orbital elements
Apogee altitude
1,989.878 km
Perigee altitude
1,009.16 km
Semi-major axis
7,877.656 km
Eccentricity
0.06225
Inclination
67.7566°
RAAN
20.4488°
Arg. of periapsis
91.2591°
True anomaly
328.02728°
Mean anomaly
331.6591°
Eccentric anomaly
329.86879°
Mean motion
3.10419 °/min
Orbital period
115.97 mins
BSTAR
0.00043996

Documentation

Showing up to 5 results
|